Погода в Нагово

Россия / Новгородская область     58°02′31″N   31°10′43″E
темп.,
°C
ветер,
м/с
пор.,
м/с
влажн.,
%
обл.,
%
осадки,
мм/ч
давл.,
гПа
погр.,
м
12 апреля, пн
пн1200:00+7юв3793100 0.1 1028168
03:00+6юв369376 0.1 1028108
06:00+6ююв4119079 0.0 1028209
09:00+10ю51270100 0.0 1028424
12:00+15ю695193 0.0 10281004
15:00+17ююв69405 0.0 10261691
18:00+16ююв59424 0.0 1024573
21:00+11юв41161100 0.0 1023264
13 апреля, вт
вт1300:00+9ююв41070100 0.0 1023373
03:00+9ю499099 0.0 1022487
06:00+8ю369652 0.0 1021146
09:00+11ю35780 0.0 1021400
12:00+15ю34513 0.0 1021957
15:00+17ююз34414 0.0 10201583
18:00+17ююз244671 0.0 1020362
21:00+11сз3674100 0.0 1021198
14 апреля, ср
ср1400:00+8ссз3688100 0.1 1021331
03:00+6с4792100 3.3 1019325
06:00+5с5992100 2.6 1019372
09:00+4с5989100 3.2 1019413
12:00+4с5991100 0.4 1020430
15:00+4с4893100 1.1 1020490
18:00+3с51096100 0.3 1021455
21:00+2с41097100 0.4 1022390
15 апреля, чт
чт1500:00+3с41187100 0.0 1022396
03:00+3ссв51182100 0.0 1022400
06:00+2ссв4108471 0.0 1022382
09:00+4ссв5107878 0.0 1023410
12:00+7ссв696487 0.0 1023763
15:00+10ссв5758100 0.0 10221067
18:00+8ссв3769100 0.0 1022319
21:00+6с51171100 0.0 1023410
16 апреля, пт
пт1600:00+4ссв51178100 0.0 1024426
03:00+2ссв41183100 0.0 1024339
06:00+2ссв412885 0.0 1025339
09:00+5св611682 0.0 1026605
12:00+9св69455 0.0 10271219
15:00+11св69365 0.0 10281560
18:00+11св59430 0.0 10281492
21:00+7св513570 0.0 1030425